[[{"header":{"parameterUnit":"m.s-1","parameterCategory":2,"la1":30.2992,"la2":30.254,"lo1":-89.0895,"lo2":-89.0443,"dy":0.0025,"dx":0.0025,"nx":19,"ny":19,"refTime":"2026-04-20T03:00:00:Z","depth":"0","parameterNumber":2,"parameterNumberName":"U-component_of_CURRENTS"},"data":[0,0,0,0.2758,0.2759,0.2804,0.2804,0.287,0.2871,0,0,0,0,0,0,0,0,0,0,0,0.2732,0.2733,0.2758,0.2759,0.2804,0.2804,0.287,0.2871,0,0,0,0,0,0,0,0,0,0,0,0.2732,0.2732,0.2733,0.276,0.2804,0.2804,0.287,0.2831,0,0,0,0,0,0,0,0,0,0,0.2785,0.2761,0.2732,0.2733,0.276,0.2804,0.2804,0.2828,0.2833,0.2857,0,0.2868,0,0.2883,0.2877,0.2877,0,0,0,0.2745,0.2757,0.2778,0.2733,0.2761,0.2804,0.278,0.2831,0.2836,0.2864,0.2869,0.2872,0.2884,0.2878,0.2878,0.2999,0.3,0,0,0.2743,0.2732,0.2774,0.2782,0.2778,0.2778,0.2781,0.2834,0.2837,0.2869,0.2874,0.2886,0.2878,0.2879,0.2999,0.2999,0,0,0,0.2745,0.273,0.2749,0.2778,0.2793,0.278,0.2783,0.2834,0.2843,0.2874,0.2886,0.2879,0.288,0.2998,0.2999,0.3027,0,0,0,0.2743,0.2733,0.2748,0.2741,0.2792,0.2813,0.2783,0.2839,0.2846,0.2886,0.2879,0.2881,0.2997,0.2998,0.3024,0.3048,0,0,0,0.2729,0.2732,0.274,0.2741,0.2769,0.2813,0.2823,0.284,0.2854,0.2878,0.2881,0.2997,0.2998,0.3022,0.3044,0.3088,0,0,0,0.2712,0.2727,0.274,0.2765,0.2768,0.2827,0.2823,0.2862,0.2884,0.2879,0.2997,0.2999,0.3022,0.3042,0.3086,0.3064,0.3074,0,0,0.2722,0.2728,0.2745,0.2758,0.2811,0.2819,0.2881,0.2904,0.2917,0.2976,0.2979,0.3025,0.3044,0.3088,0.3155,0.3162,0,0,0,0.2743,0.2753,0.2773,0.2806,0.285,0.2894,0.2923,0.2952,0.3004,0.2941,0.3049,0.3061,0.3087,0.307,0.3076,0.286,0.3006,0.3006,0.3006,0.2726,0.2758,0.2788,0.2835,0.288,0.2952,0.2999,0.3047,0.3047,0.3084,0.3101,0.3179,0.3161,0.3166,0.2943,0.3115,0.3115,0.3115,0.3116,0.2722,0.273,0.2787,0.2823,0.2892,0.2948,0.3068,0.3095,0.3194,0.3167,0.3191,0.3122,0.3174,0.2934,0.3118,0.3117,0.3117,0.3117,0.3117,0.2681,0.2691,0.2717,0.2778,0.2853,0.2947,0.3057,0.3155,0.3217,0.3263,0.3244,0.3243,0.3017,0.3268,0.3269,0.3269,0.3269,0.3269,0.327,0.2615,0.265,0.2669,0.2745,0.2784,0.289,0.3069,0.3158,0.3263,0.3292,0.3292,0.3021,0.3226,0.3203,0.3274,0.3274,0.3273,0.3273,0.3272,0.2559,0.2584,0.2607,0.264,0.274,0.2794,0.2988,0.316,0.3275,0.3313,0.3062,0.3312,0.3305,0.3299,0.3279,0.3366,0.3366,0.3366,0.3366,0.2514,0.2534,0.2543,0.2573,0.2643,0.2745,0.2815,0.2973,0.3035,0.2977,0.2977,0.2889,0.2895,0.2858,0.2862,0.283,0.2801,0.28,0.2799,0.2481,0.2496,0.2471,0.251,0.2577,0.2653,0.2646,0.2629,0.2688,0.2752,0.2679,0.2703,0.2547,0.2574,0.2496,0.2519,0.2461,0,0]},{"header":{"parameterUnit":"m.s-1","parameterCategory":2,"la1":30.2992,"la2":30.254,"lo1":-89.0895,"lo2":-89.0443,"dy":0.0025,"dx":0.0025,"nx":19,"ny":19,"refTime":"2026-04-20T03:00:00:Z","depth":"0","parameterNumber":3,"parameterNumberName":"V-component_of_CURRENTS"},"data":[0,0,0,-0.014,-0.014,-0.0155,-0.0155,-0.019,-0.0191,0,0,0,0,0,0,0,0,0,0,0,-0.0138,-0.0138,-0.014,-0.014,-0.0155,-0.0155,-0.019,-0.0191,0,0,0,0,0,0,0,0,0,0,0,-0.0138,-0.0138,-0.0138,-0.014,-0.0155,-0.0155,-0.019,-0.0177,0,0,0,0,0,0,0,0,0,0,-0.0161,-0.0152,-0.0138,-0.0138,-0.014,-0.0155,-0.0155,-0.0176,-0.0178,-0.0186,0,-0.0185,0,-0.0184,-0.0193,-0.0193,0,0,0,-0.0147,-0.015,-0.0155,-0.0138,-0.014,-0.0155,-0.015,-0.0177,-0.0179,-0.0188,-0.0185,-0.0187,-0.0185,-0.0193,-0.0193,-0.0191,-0.019,0,0,-0.0147,-0.0142,-0.0153,-0.0156,-0.014,-0.015,-0.015,-0.0178,-0.0178,-0.0186,-0.0187,-0.0186,-0.0193,-0.0193,-0.0191,-0.019,0,0,0,-0.0139,-0.0141,-0.0145,-0.0154,-0.0153,-0.015,-0.0151,-0.0177,-0.0178,-0.0188,-0.0186,-0.0193,-0.0194,-0.0191,-0.0191,-0.0104,0,0,0,-0.0139,-0.0136,-0.0144,-0.0142,-0.0153,-0.0162,-0.015,-0.0177,-0.0179,-0.0186,-0.0193,-0.0194,-0.0191,-0.0191,-0.0107,-0.0038,0,0,0,-0.0138,-0.0136,-0.0137,-0.0141,-0.0144,-0.0162,-0.0165,-0.0177,-0.0178,-0.0193,-0.0194,-0.0192,-0.0191,-0.011,-0.0044,0.0009,0,0,0,-0.0134,-0.0111,-0.0137,-0.0111,-0.0144,-0.0123,-0.0164,-0.0163,-0.0171,-0.0193,-0.0191,-0.0191,-0.011,-0.0048,0.0005,0.0156,0.0186,0,0,-0.0098,-0.0107,-0.0091,-0.0113,-0.0076,-0.0122,-0.0083,-0.012,-0.0166,-0.0186,-0.0186,-0.0106,-0.0045,0.0008,0.0191,0.022,0,0,0,-0.0074,-0.006,-0.0056,-0.0042,-0.0044,-0.0033,-0.0069,-0.0086,-0.0108,-0.0167,-0.0118,-0.0082,-0.0051,0.0031,0.0054,0.0002,-0.0188,-0.0188,-0.0188,-0.0015,-0.0013,0.0026,0.0032,0.0039,0.0028,0.0039,0.0007,-0.0054,-0.0055,-0.0021,0.0069,0.0157,0.0176,0.0119,-0.005,-0.0049,-0.0049,-0.0049,0.0061,0.0092,0.0093,0.0129,0.0131,0.0154,0.0146,0.0115,0.013,0.0051,0.0075,0.0107,0.0206,0.0137,-0.0044,-0.0045,-0.0045,-0.0046,-0.0046,0.011,0.0129,0.0143,0.0199,0.0243,0.0242,0.0325,0.0284,0.0227,0.0257,0.0318,0.0318,0.0267,0.0251,0.0251,0.0252,0.0252,0.0253,0.0253,0.0157,0.0176,0.0229,0.0277,0.0324,0.0395,0.0432,0.0471,0.0489,0.0451,0.0451,0.0308,0.0161,0.016,0.0261,0.026,0.0259,0.0258,0.0257,0.0226,0.0224,0.0314,0.0364,0.0486,0.0624,0.0648,0.0773,0.0771,0.0815,0.0621,0.0549,0.0542,0.0524,0.0532,0.0723,0.0723,0.0723,0.0723,0.0266,0.0274,0.0395,0.0495,0.0627,0.0732,0.0989,0.1095,0.0994,0.0924,0.0779,0.0727,0.071,0.0706,0.0684,0.0691,0.0918,0.0918,0.0918,0.0315,0.0346,0.0442,0.0535,0.0686,0.0875,0.1165,0.1394,0.1189,0.091,0.0677,0.0669,0.0567,0.0545,0.0511,0.0484,0.0484,0,0]}],[{"header":{"parameterUnit":"m.s-1","parameterCategory":2,"la1":30.2992,"la2":30.254,"lo1":-89.0895,"lo2":-89.0443,"dy":0.0025,"dx":0.0025,"nx":19,"ny":19,"refTime":"2026-04-20T03:00:00:Z","depth":"2","parameterNumber":2,"parameterNumberName":"U-component_of_CURRENTS"},"data":[0,0,0,0.2166,0.2166,0.2231,0.2232,0.2321,0.2322,0,0,0,0,0,0,0,0,0,0,0,0.2164,0.2164,0.2165,0.2166,0.2231,0.2232,0.2321,0.2322,0,0,0,0,0,0,0,0,0,0,0,0.2163,0.2164,0.2165,0.2166,0.2231,0.2232,0.2321,0.2275,0,0,0,0,0,0,0,0,0,0,0.2214,0.2198,0.2164,0.2165,0.2167,0.2231,0.2232,0.2273,0.2278,0.2287,0,0.2299,0,0.2294,0.2326,0.2326,0,0,0,0.2188,0.2194,0.2209,0.2165,0.2167,0.2231,0.2208,0.2276,0.2282,0.2293,0.23,0.2303,0.2295,0.2326,0.2326,0.2418,0.2418,0,0,0.2184,0.2178,0.2205,0.2213,0.2187,0.2206,0.221,0.228,0.2288,0.23,0.2305,0.2297,0.2327,0.2327,0.2417,0.2418,0,0,0,0.2159,0.2175,0.219,0.221,0.2211,0.2207,0.2212,0.2285,0.229,0.2305,0.2298,0.2327,0.2328,0.2417,0.2418,0.2449,0,0,0,0.2158,0.2159,0.2188,0.2185,0.2209,0.2245,0.2216,0.2286,0.2293,0.2297,0.2327,0.2328,0.2416,0.2417,0.2447,0.2456,0,0,0,0.216,0.2158,0.2167,0.2185,0.22,0.2243,0.2253,0.2288,0.2287,0.2326,0.2328,0.2416,0.2417,0.2445,0.2453,0.2504,0,0,0,0.215,0.2165,0.2167,0.2187,0.2199,0.2248,0.2253,0.2294,0.2329,0.2327,0.2416,0.2417,0.2444,0.2452,0.2502,0.2368,0.2368,0,0,0.2161,0.2167,0.2179,0.2181,0.2215,0.224,0.2295,0.2337,0.2352,0.2396,0.2398,0.2448,0.2453,0.2504,0.2443,0.244,0,0,0,0.2177,0.2183,0.2198,0.2215,0.2251,0.2298,0.2336,0.2364,0.2426,0.2374,0.2465,0.2468,0.2499,0.2414,0.2412,0.2424,0.2423,0.2423,0.2423,0.2169,0.2187,0.2209,0.2241,0.2281,0.2341,0.2396,0.2444,0.2452,0.249,0.2507,0.2583,0.2493,0.249,0.2524,0.2524,0.2524,0.2524,0.2524,0.2161,0.2163,0.2207,0.2233,0.2293,0.235,0.2457,0.2488,0.2579,0.2558,0.2587,0.2466,0.249,0.2527,0.2527,0.2526,0.2526,0.2526,0.2526,0.2127,0.2131,0.2158,0.2205,0.2278,0.2367,0.2452,0.2537,0.2608,0.2646,0.2568,0.2565,0.26,0.2669,0.267,0.267,0.267,0.267,0.2671,0.2072,0.2102,0.2115,0.2185,0.2222,0.2319,0.2464,0.2526,0.2584,0.2595,0.2594,0.2632,0.2628,0.261,0.2675,0.2674,0.2674,0.2673,0.2673,0.2016,0.2038,0.2049,0.2075,0.216,0.2165,0.2335,0.2395,0.2501,0.2489,0.2569,0.257,0.255,0.2549,0.2529,0.257,0.257,0.257,0.257,0.1969,0.1985,0.1981,0.1994,0.2038,0.2086,0.202,0.2079,0.2239,0.2288,0.23,0.2212,0.2223,0.218,0.2187,0.2158,0.2103,0.2102,0.2101,0.1931,0.1936,0.1912,0.1931,0.1962,0.1943,0.1779,0.1671,0.1824,0.2082,0.221,0.254,0.244,0.2445,0.2402,0.2405,0.2368,0,0]},{"header":{"parameterUnit":"m.s-1","parameterCategory":2,"la1":30.2992,"la2":30.254,"lo1":-89.0895,"lo2":-89.0443,"dy":0.0025,"dx":0.0025,"nx":19,"ny":19,"refTime":"2026-04-20T03:00:00:Z","depth":"2","parameterNumber":3,"parameterNumberName":"V-component_of_CURRENTS"},"data":[0,0,0,0.0215,0.0215,0.0216,0.0216,0.021,0.021,0,0,0,0,0,0,0,0,0,0,0,0.0208,0.0208,0.0215,0.0215,0.0216,0.0216,0.021,0.021,0,0,0,0,0,0,0,0,0,0,0,0.0208,0.0208,0.0208,0.0215,0.0217,0.0216,0.021,0.0209,0,0,0,0,0,0,0,0,0,0,0.0207,0.0205,0.0208,0.0208,0.0215,0.0217,0.0216,0.0208,0.0209,0.0211,0,0.0214,0,0.0219,0.0211,0.0211,0,0,0,0.0205,0.0205,0.0209,0.0208,0.0215,0.0217,0.0213,0.0209,0.0209,0.0211,0.0214,0.0214,0.0219,0.0211,0.0211,0.0254,0.0254,0,0,0.0205,0.0204,0.0209,0.021,0.022,0.0213,0.0213,0.0209,0.0208,0.0214,0.0214,0.0219,0.0211,0.0211,0.0253,0.0254,0,0,0,0.0211,0.0203,0.0208,0.021,0.0215,0.0213,0.0213,0.0208,0.0211,0.0214,0.0219,0.0211,0.0211,0.0253,0.0253,0.0313,0,0,0,0.0211,0.0208,0.0208,0.0206,0.0215,0.0213,0.0213,0.0211,0.0211,0.0219,0.0211,0.0211,0.0252,0.0253,0.031,0.0367,0,0,0,0.0207,0.0208,0.021,0.0206,0.0213,0.0214,0.0215,0.0211,0.0215,0.0211,0.0211,0.0252,0.0253,0.0308,0.0362,0.041,0,0,0,0.0203,0.0226,0.021,0.0241,0.0213,0.0249,0.0215,0.0232,0.0234,0.0211,0.0252,0.0253,0.0307,0.0359,0.0407,0.0472,0.0493,0,0,0.0234,0.0229,0.025,0.0237,0.0289,0.0248,0.0298,0.028,0.0248,0.025,0.0251,0.0311,0.0361,0.041,0.0531,0.055,0,0,0,0.0263,0.0282,0.0294,0.0318,0.0328,0.0351,0.0327,0.0318,0.0312,0.0256,0.0315,0.0346,0.0374,0.0406,0.0421,0.0258,0.0258,0.0258,0.0258,0.0307,0.0323,0.037,0.0393,0.0414,0.0422,0.0435,0.0418,0.0368,0.0374,0.0396,0.048,0.0514,0.0527,0.0381,0.0381,0.0381,0.0381,0.0382,0.0379,0.0416,0.0435,0.0485,0.0504,0.054,0.0548,0.0519,0.0529,0.0466,0.0489,0.047,0.0547,0.0386,0.0385,0.0385,0.0384,0.0384,0.0384,0.0418,0.044,0.0464,0.0539,0.0605,0.0627,0.0715,0.0674,0.0611,0.0627,0.0647,0.0646,0.053,0.0625,0.0625,0.0626,0.0626,0.0627,0.0627,0.0447,0.0477,0.0539,0.061,0.0671,0.076,0.0813,0.0836,0.081,0.0747,0.0746,0.0563,0.0555,0.0545,0.0634,0.0633,0.0632,0.0631,0.0631,0.0509,0.0516,0.0612,0.0675,0.0831,0.097,0.1005,0.106,0.1039,0.1032,0.0811,0.0805,0.0799,0.0786,0.0782,0.0927,0.0927,0.0927,0.0927,0.0545,0.0558,0.0689,0.081,0.0962,0.1076,0.1239,0.1225,0.111,0.1006,0.1002,0.0948,0.0935,0.0932,0.0915,0.0911,0.1091,0.1091,0.1091,0.0594,0.0628,0.0728,0.0844,0.1026,0.1201,0.1342,0.1293,0.1106,0.1093,0.0985,0.0947,0.0853,0.0838,0.0817,0.0797,0.0784,0,0]}],[{"header":{"parameterUnit":"m.s-1","parameterCategory":2,"la1":30.2992,"la2":30.254,"lo1":-89.0895,"lo2":-89.0443,"dy":0.0025,"dx":0.0025,"nx":19,"ny":19,"refTime":"2026-04-20T03:00:00:Z","depth":"4","parameterNumber":2,"parameterNumberName":"U-component_of_CURRENTS"},"data":[0,0,0,0.1276,0.1279,0.1383,0.1384,0.147,0.1471,0,0,0,0,0,0,0,0,0,0,0,0.1247,0.1248,0.1276,0.1279,0.1383,0.1384,0.147,0.1471,0,0,0,0,0,0,0,0,0,0,0,0.1247,0.1248,0.1249,0.1279,0.1383,0.1384,0.147,0.1403,0,0,0,0,0,0,0,0,0,0,0.1307,0.1297,0.1248,0.1249,0.128,0.1383,0.1384,0.14,0.1407,0.1409,0,0.1435,0,0.1451,0.1475,0.1475,0,0,0,0.128,0.1291,0.1308,0.1249,0.1281,0.1383,0.1336,0.1404,0.1412,0.1417,0.1436,0.1439,0.1452,0.1476,0.1476,0.1552,0.1553,0,0,0.1274,0.1274,0.1303,0.1314,0.132,0.1333,0.134,0.141,0.1428,0.1436,0.1442,0.1454,0.1476,0.1477,0.1552,0.1552,0,0,0,0.1257,0.127,0.1287,0.131,0.1331,0.1336,0.1344,0.1425,0.1428,0.1443,0.1455,0.1477,0.1477,0.1552,0.1552,0.1606,0,0,0,0.1253,0.126,0.1285,0.1287,0.133,0.1388,0.1358,0.1424,0.1432,0.1454,0.1477,0.1478,0.1551,0.1552,0.1604,0.1604,0,0,0,0.124,0.1259,0.1272,0.1287,0.133,0.1388,0.1396,0.1426,0.1439,0.1476,0.1478,0.1551,0.1552,0.1602,0.1601,0.1653,0,0,0,0.1234,0.1252,0.1273,0.1301,0.1329,0.1378,0.1396,0.1451,0.1486,0.1477,0.1551,0.1552,0.1601,0.1599,0.1651,0.1416,0,0,0,0.1243,0.1254,0.1266,0.1286,0.1321,0.1363,0.1423,0.1482,0.1495,0.1524,0.1527,0.1605,0.1601,0.1653,0.1463,0,0,0,0,0.1258,0.127,0.1285,0.1317,0.1355,0.1413,0.147,0.1505,0.1569,0.1519,0.1605,0.16,0.1632,0.1488,0.1556,0.1556,0.1556,0.1556,0.1556,0.1262,0.1275,0.1298,0.1328,0.1373,0.1458,0.1514,0.157,0.1588,0.163,0.1646,0.1719,0.1569,0.1659,0.166,0.166,0.166,0.166,0.166,0.1252,0.1251,0.1301,0.1331,0.1398,0.1467,0.1567,0.1614,0.1704,0.1691,0.172,0.1555,0.1666,0.1665,0.1664,0.1663,0.1663,0.1663,0.1662,0.1224,0.1223,0.1262,0.1315,0.1398,0.1491,0.1568,0.1666,0.1736,0.1779,0.1649,0.1756,0.1751,0.1819,0.1819,0.182,0.182,0.182,0.182,0.1169,0.1202,0.1226,0.1301,0.1349,0.1439,0.1587,0.1638,0.1743,0.1667,0.1807,0.1772,0.1767,0.176,0.1824,0.1823,0.1823,0.1822,0.1822,0.1107,0.1142,0.1162,0.1201,0.1281,0.1326,0.1491,0.1544,0.1597,0.1586,0.161,0.1619,0.1577,0.1577,0.1561,0.1569,0.1566,0.1563,0,0.1064,0.108,0.1092,0.1108,0.113,0.1235,0.1236,0.1327,0.1429,0.1375,0.1608,0.1633,0.1638,0.1588,0.1584,0.1562,0,0,0,0.1023,0.1034,0.1015,0.1032,0.1039,0.109,0.1222,0.1204,0.141,0.1391,0.1494,0.1512,0.1693,0.1835,0.1794,0.1787,0.1773,0,0]},{"header":{"parameterUnit":"m.s-1","parameterCategory":2,"la1":30.2992,"la2":30.254,"lo1":-89.0895,"lo2":-89.0443,"dy":0.0025,"dx":0.0025,"nx":19,"ny":19,"refTime":"2026-04-20T03:00:00:Z","depth":"4","parameterNumber":3,"parameterNumberName":"V-component_of_CURRENTS"},"data":[0,0,0,0.0273,0.0273,0.0302,0.0302,0.0328,0.0328,0,0,0,0,0,0,0,0,0,0,0,0.0265,0.0265,0.0273,0.0273,0.0302,0.0302,0.0328,0.0328,0,0,0,0,0,0,0,0,0,0,0,0.0264,0.0265,0.0265,0.0274,0.0302,0.0302,0.0328,0.0309,0,0,0,0,0,0,0,0,0,0,0.0282,0.0275,0.0265,0.0265,0.0274,0.0302,0.0302,0.0308,0.031,0.0313,0,0.032,0,0.0325,0.033,0.033,0,0,0,0.0273,0.0274,0.0283,0.0265,0.0274,0.0302,0.0289,0.0309,0.0312,0.0315,0.0321,0.0322,0.0325,0.033,0.033,0.0379,0.0379,0,0,0.0271,0.0268,0.0281,0.0284,0.0285,0.0288,0.029,0.0311,0.0314,0.0321,0.0322,0.0325,0.033,0.033,0.0378,0.0379,0,0,0,0.0267,0.0267,0.0275,0.0283,0.0289,0.0289,0.0291,0.0313,0.0316,0.0323,0.0326,0.033,0.0331,0.0378,0.0378,0.0422,0,0,0,0.0266,0.0264,0.0275,0.0273,0.0289,0.0302,0.0292,0.0315,0.0317,0.0326,0.033,0.0331,0.0377,0.0378,0.042,0.0452,0,0,0,0.0263,0.0264,0.0269,0.0272,0.0285,0.0302,0.0307,0.0316,0.0319,0.033,0.0331,0.0377,0.0378,0.0418,0.0449,0.0478,0,0,0,0.0255,0.0276,0.0269,0.0297,0.0285,0.0326,0.0307,0.0334,0.0347,0.0331,0.0377,0.0378,0.0417,0.0447,0.0476,0.0462,0,0,0,0.028,0.0279,0.0298,0.0292,0.0341,0.0321,0.037,0.0375,0.0359,0.0369,0.037,0.042,0.0449,0.0477,0.0511,0,0,0,0,0.0305,0.0321,0.0335,0.036,0.0379,0.0406,0.0404,0.0402,0.0412,0.037,0.0425,0.0442,0.0459,0.0444,0.0382,0.0382,0.0382,0.0382,0.0382,0.0332,0.0351,0.0393,0.0421,0.0447,0.0467,0.0483,0.0479,0.0454,0.0462,0.048,0.0538,0.0524,0.0476,0.0476,0.0476,0.0476,0.0476,0.0476,0.0382,0.0411,0.044,0.0489,0.0517,0.0557,0.057,0.0555,0.0565,0.0528,0.0541,0.0495,0.0481,0.048,0.0479,0.0479,0.0478,0.0478,0.0478,0.04,0.042,0.0452,0.0526,0.0593,0.0625,0.0686,0.0665,0.0623,0.0631,0.0609,0.0575,0.0568,0.0634,0.0634,0.0634,0.0635,0.0635,0.0635,0.0406,0.0441,0.0498,0.0574,0.0636,0.0714,0.0756,0.0759,0.0718,0.0673,0.0649,0.0591,0.0586,0.0577,0.0639,0.0639,0.0638,0.0638,0.0637,0.0434,0.0451,0.0536,0.0599,0.074,0.0795,0.084,0.082,0.0817,0.0773,0.0689,0.0685,0.0671,0.0664,0.0656,0.0745,0.0745,0.0745,0,0.0449,0.0464,0.0579,0.0684,0.0793,0.085,0.0873,0.0868,0.0794,0.0776,0.0801,0.0707,0.0703,0.0687,0.0681,0.0673,0,0,0,0.0474,0.0506,0.0587,0.0693,0.082,0.0858,0.0881,0.0859,0.0805,0.079,0.0747,0.0746,0.071,0.0652,0.0622,0.0616,0.0599,0,0]}]]